When you browse on this site, cookies collect data to enhance your experience and personalize the content and advertising you see.
Visit our Privacy Policy to learn more. By continuing to use the site, you agree to this use of cookies and data.
  • Em Portugal
  • Lista de países
  • Para 7 dias
  • Temperatura da água
  • Mapas de satélite
  • Mapa do tempo
  • Widgets de tempo
  • user-avatar
    Iniciar Sessão

    Previsão horária em Mayrhofen

    Hoje, 18 Janeiro, Sexta-feira

    Tempo Temperatura Precipitação Vento Pressão Humidade
    00:00 -7°C° 1 mm 2 m/s 609 mmHg 96%
    01:00 -8°C° 1 mm 3 m/s 609 mmHg 96%
    02:00 -8°C° 0.4 mm 2 m/s 609 mmHg 94%
    03:00 -9°C° 0.4 mm 2 m/s 609 mmHg 93%
    04:00 -9°C° 0.4 mm 2 m/s 609 mmHg 92%
    05:00 -10°C° 0.1 mm 2 m/s 609 mmHg 93%
    06:00 -12°C° 0.1 mm 2 m/s 609 mmHg 94%
    07:00 -13°C° 0.1 mm 2 m/s 609 mmHg 94%
    08:00 -12°C° 0.1 mm 2 m/s 610 mmHg 93%
    09:00 -12°C° 0.1 mm 3 m/s 611 mmHg 91%
    10:00 -10°C° 0.1 mm 3 m/s 611 mmHg 89%
    11:00 -9°C° 0 mm 2 m/s 612 mmHg 87%
    12:00 -9°C° 0 mm 2 m/s 612 mmHg 85%
    13:00 -8°C° 0 mm 2 m/s 612 mmHg 83%
    14:00 -9°C° 0 mm 2 m/s 611 mmHg 85%
    15:00 -9°C° 0 mm 1 m/s 611 mmHg 87%
    16:00 -10°C° 0 mm 1 m/s 611 mmHg 89%
    17:00 -12°C° 0 mm 1 m/s 610 mmHg 89%
    18:00 -14°C° 0 mm 1 m/s 610 mmHg 88%
    19:00 -15°C° 0 mm 1 m/s 609 mmHg 88%
    20:00 -15°C° 0 mm 1 m/s 610 mmHg 82%
    21:00 -16°C° 0 mm 2 m/s 610 mmHg 76%
    22:00 -16°C° 0 mm 2 m/s 610 mmHg 70%
    23:00 -16°C° 0 mm 2 m/s 610 mmHg 70%

    Amanhã, 19 Janeiro, Sábado

    Tempo Temperatura Precipitação Vento Pressão Humidade
    00:00 -15°C° 0 mm 2 m/s 610 mmHg 71%
    01:00 -15°C° 0 mm 2 m/s 610 mmHg 71%
    02:00 -15°C° 0 mm 2 m/s 610 mmHg 74%
    03:00 -14°C° 0 mm 2 m/s 610 mmHg 77%
    04:00 -14°C° 0 mm 2 m/s 610 mmHg 79%
    05:00 -14°C° 0 mm 2 m/s 610 mmHg 80%
    06:00 -14°C° 0 mm 2 m/s 610 mmHg 81%
    07:00 -14°C° 0 mm 2 m/s 610 mmHg 82%
    08:00 -12°C° 0 mm 2 m/s 610 mmHg 82%
    09:00 -10°C° 0 mm 2 m/s 611 mmHg 83%
    10:00 -9°C° 0 mm 2 m/s 611 mmHg 84%
    11:00 -7°C° 0 mm 2 m/s 611 mmHg 83%
    12:00 -6°C° 0 mm 2 m/s 611 mmHg 82%
    13:00 -3°C° 0 mm 1 m/s 611 mmHg 81%
    14:00 -4°C° 0 mm 1 m/s 611 mmHg 82%
    15:00 -4°C° 0 mm 1 m/s 610 mmHg 83%
    16:00 -6°C° 0 mm 1 m/s 610 mmHg 84%
    17:00 -7°C° 0 mm 1 m/s 609 mmHg 83%
    18:00 -10°C° 0 mm 2 m/s 609 mmHg 83%
    19:00 -13°C° 0 mm 2 m/s 608 mmHg 83%
    20:00 -13°C° 0 mm 2 m/s 608 mmHg 82%
    21:00 -14°C° 0 mm 2 m/s 608 mmHg 81%
    22:00 -14°C° 0 mm 2 m/s 608 mmHg 81%
    23:00 -14°C° 0 mm 2 m/s 608 mmHg 81%

    Depois de amanhã, 20 Janeiro, Domingo

    Tempo Temperatura Precipitação Vento Pressão Humidade
    00:00 -14°C° 0 mm 2 m/s 608 mmHg 81%
    01:00 -15°C° 0 mm 2 m/s 608 mmHg 81%
    02:00 -14°C° 0 mm 2 m/s 607 mmHg 80%
    03:00 -14°C° 0 mm 2 m/s 607 mmHg 80%
    04:00 -14°C° 0 mm 2 m/s 607 mmHg 80%
    05:00 -12°C° 0 mm 1 m/s 608 mmHg 80%
    06:00 -12°C° 0 mm 1 m/s 608 mmHg 79%
    07:00 -12°C° 0 mm 1 m/s 608 mmHg 79%
    08:00 -10°C° 0 mm 1 m/s 609 mmHg 79%
    09:00 -9°C° 0 mm 1 m/s 609 mmHg 79%
    10:00 -7°C° 0 mm 1 m/s 610 mmHg 79%
    11:00 -6°C° 0 mm 1 m/s 610 mmHg 77%
    12:00 -4°C° 0 mm 1 m/s 611 mmHg 75%
    13:00 -3°C° 0 mm 1 m/s 611 mmHg 73%
    14:00 -3°C° 0 mm 1 m/s 611 mmHg 78%
    15:00 -4°C° 0 mm 1 m/s 610 mmHg 83%
    16:00 -4°C° 0 mm 1 m/s 610 mmHg 89%
    17:00 -7°C° 0.1 mm 1 m/s 610 mmHg 90%
    18:00 -8°C° 0.1 mm 1 m/s 610 mmHg 91%
    19:00 -9°C° 0.1 mm 1 m/s 610 mmHg 92%
    20:00 -9°C° 0 mm 1 m/s 610 mmHg 91%
    21:00 -10°C° 0 mm 1 m/s 611 mmHg 90%
    22:00 -10°C° 0 mm 1 m/s 611 mmHg 89%
    23:00 -10°C° 0 mm 1 m/s 611 mmHg 88%

    21 Janeiro, Segunda-feira

    Tempo Temperatura Precipitação Vento Pressão Humidade
    00:00 -11°C° 0 mm 1 m/s 611 mmHg 87%
    01:00 -11°C° 0 mm 1 m/s 611 mmHg 87%
    02:00 -12°C° 0 mm 1 m/s 611 mmHg 87%
    03:00 -12°C° 0 mm 1 m/s 611 mmHg 87%
    04:00 -13°C° 0 mm 1 m/s 610 mmHg 87%
    05:00 -13°C° 0 mm 1 m/s 611 mmHg 87%
    06:00 -13°C° 0 mm 1 m/s 611 mmHg 87%
    07:00 -13°C° 0 mm 1 m/s 611 mmHg 87%
    08:00 -11°C° 0 mm 1 m/s 612 mmHg 87%
    09:00 -10°C° 0 mm 1 m/s 613 mmHg 86%
    10:00 -8°C° 0 mm 1 m/s 614 mmHg 86%
    11:00 -7°C° 0 mm 1 m/s 614 mmHg 84%
    12:00 -6°C° 0 mm 1 m/s 614 mmHg 82%
    13:00 -4°C° 0 mm 1 m/s 614 mmHg 80%
    14:00 -4°C° 0 mm 1 m/s 614 mmHg 83%
    15:00 -4°C° 0 mm 1 m/s 613 mmHg 87%
    16:00 -6°C° 0 mm 1 m/s 613 mmHg 90%
    17:00 -7°C° 0 mm 1 m/s 613 mmHg 91%
    18:00 -9°C° 0 mm 1 m/s 612 mmHg 93%
    19:00 -11°C° 0 mm 1 m/s 612 mmHg 94%
    20:00 -11°C° 0 mm 1 m/s 611 mmHg 93%
    21:00 -12°C° 0 mm 1 m/s 611 mmHg 92%
    22:00 -12°C° 0 mm 1 m/s 611 mmHg 90%
    23:00 -12°C° 0 mm 1 m/s 610 mmHg 89%

    22 Janeiro, Terça-feira

    Tempo Temperatura Precipitação Vento Pressão Humidade
    00:00 -13°C° 0 mm 1 m/s 610 mmHg 87%
    01:00 -13°C° 0 mm 1 m/s 609 mmHg 85%
    02:00 -13°C° 0 mm 1 m/s 609 mmHg 83%
    03:00 -13°C° 0 mm 1 m/s 608 mmHg 81%
    04:00 -13°C° 0 mm 1 m/s 608 mmHg 79%
    05:00 -13°C° 0 mm 1 m/s 607 mmHg 77%
    06:00 -13°C° 0 mm 1 m/s 607 mmHg 76%
    07:00 -13°C° 0 mm 1 m/s 606 mmHg 74%
    08:00 -11°C° 0 mm 1 m/s 606 mmHg 74%
    09:00 -9°C° 0 mm 1 m/s 606 mmHg 74%
    10:00 -8°C° 0 mm 1 m/s 606 mmHg 74%
    11:00 -6°C° 0 mm 1 m/s 606 mmHg 73%
    12:00 -4°C° 0 mm 1 m/s 605 mmHg 71%
    13:00 -3°C° 0 mm 1 m/s 605 mmHg 70%
    14:00 -3°C° 0.1 mm 1 m/s 604 mmHg 75%
    15:00 -4°C° 0.1 mm 1 m/s 603 mmHg 81%
    16:00 -4°C° 0.1 mm 1 m/s 602 mmHg 87%
    17:00 -6°C° 0.1 mm 1 m/s 601 mmHg 87%
    18:00 -7°C° 0.1 mm 1 m/s 601 mmHg 87%
    19:00 -9°C° 0.1 mm 1 m/s 600 mmHg 87%
    20:00 -9°C° 0.1 mm 1 m/s 600 mmHg 88%
    21:00 -9°C° 0.1 mm 1 m/s 600 mmHg 89%
    22:00 -9°C° 0.1 mm 1 m/s 599 mmHg 89%
    23:00 -9°C° 0.2 mm 1 m/s 599 mmHg 91%

    23 Janeiro, Quarta-feira

    Tempo Temperatura Precipitação Vento Pressão Humidade
    00:00 -9°C° 0.2 mm 1 m/s 599 mmHg 93%
    01:00 -10°C° 0.2 mm 2 m/s 599 mmHg 95%
    02:00 -12°C° 0.2 mm 2 m/s 598 mmHg 95%
    03:00 -12°C° 0.2 mm 2 m/s 598 mmHg 95%
    04:00 -12°C° 0.2 mm 2 m/s 597 mmHg 95%
    05:00 -13°C° 0.2 mm 2 m/s 597 mmHg 95%
    06:00 -11°C° 0.2 mm 1 m/s 596 mmHg 94%
    07:00 -11°C° 0.2 mm 1 m/s 596 mmHg 94%
    08:00 -11°C° 0.2 mm 1 m/s 596 mmHg 93%
    09:00 -10°C° 0.2 mm 1 m/s 596 mmHg 92%
    10:00 -9°C° 0.2 mm 1 m/s 596 mmHg 91%
    11:00 -9°C° 0.1 mm 2 m/s 596 mmHg 90%
    12:00 -9°C° 0.1 mm 2 m/s 596 mmHg 89%
    13:00 -8°C° 0.1 mm 2 m/s 595 mmHg 88%
    14:00 -9°C° 0.2 mm 3 m/s 595 mmHg 90%
    15:00 -9°C° 0.2 mm 3 m/s 594 mmHg 91%
    16:00 -9°C° 0.2 mm 3 m/s 594 mmHg 93%
    17:00 -10°C° 0.5 mm 3 m/s 593 mmHg 94%
    18:00 -12°C° 0.5 mm 3 m/s 593 mmHg 95%
    19:00 -12°C° 0.5 mm 3 m/s 593 mmHg 96%
    20:00 -12°C° 0.6 mm 2 m/s 593 mmHg 96%
    21:00 -12°C° 0.6 mm 2 m/s 593 mmHg 95%
    22:00 -10°C° 0.6 mm 1 m/s 593 mmHg 95%
    23:00 -11°C° 0.1 mm 1 m/s 593 mmHg 94%
    Mostrar mais